Regional Weather Roundup
Issued by NWS

Home | Current Version | Previous Version | Text Only | Print | Product List | Glossary Off
Versions: 1 2 3 4 5 6 7 8 9 10 11 12 13 14 15 16 17 18 19 20 21 22 23 24 25 26 27 28 29 30 31 32 33 34 35 36 37 38 39 40 41 42 43 44 45 46 47 48 49 50

000
ASUS43 KOAX 060910
RWRNE

WEATHER ROUNDUP FOR NEBRASKA
NATIONAL WEATHER SERVICE OMAHA NE
300 AM CST SAT FEB 06 2016

NOTES: SATELLITE DATA IS BEING USED TO AUGMENT CLOUD COVER ABOVE
       12000 FEET.
       "FAIR" INDICATES FEW OR NO CLOUDS BELOW 12,000 FEET WITH NO
       SIGNIFICANT WEATHER AND/OR OBSTRUCTIONS TO VISIBILITY.

  * THESE STATIONS DO NOT REPORT WEATHER SUCH AS RAIN...SNOW OR FOG.

NEZ001>004-019>022-054>056-061000-
NEBRASKA PANHANDLE

CITY           SKY/WX    TMP DP  RH WIND       PRES   REMARKS
SCOTTSBLUFF    CLOUDY    20  13  74 N7        30.21F WCI  11
ALLIANCE       CLOUDY    10   6  84 W8        30.18S WCI  -2
CHADRON        CLOUDY    20  13  74 SW6       30.18S WCI  12
KIMBALL        CLOUDY    19  10  68 W15       30.20F WCI   5
SIDNEY         CLOUDY    19  10  68 W13       30.22F WCI   6
$$

NEZ057>060-069>072-079>082-061000-
SOUTHWEST NEBRASKA

CITY           SKY/WX    TMP DP  RH WIND       PRES   REMARKS
NORTH PLATTE   CLOUDY    11   6  81 NW3       30.24F
IMPERIAL       CLOUDY    20   9  62 W14       30.26S WCI   7
LEXINGTON      CLOUDY    11   9  88 NW3       30.27S
MCCOOK         CLOUDY    14  10  84 W8        30.29R WCI   3
OGALLALA       CLOUDY    14   8  75 W8        30.24F WCI   3
$$

NEZ005>010-023>029-035>040-094-061000-
NORTH CENTRAL NEBRASKA

CITY           SKY/WX    TMP DP  RH WIND       PRES   REMARKS
VALENTINE      CLOUDY    23  18  81 SW8       30.15F WCI  14
AINSWORTH      CLEAR     24  19  83 SW9       30.16F WCI  14
BROKEN BOW     CLOUDY    15  14  95 CALM      30.23S
O`NEILL        CLEAR     23  20  86 SW5       30.21S WCI  17
ORD            CLEAR     18  15  88 CALM      30.23F
THEDFORD       CLOUDY    21  17  83 SW5       30.20F WCI  15
$$

NEZ041-046>049-061>064-073>077-083>087-061000-
SOUTH CENTRAL NEBRASKA

CITY           SKY/WX    TMP DP  RH WIND       PRES   REMARKS
GRAND ISLAND   CLEAR     22  19  89 W9        30.28R WCI  12
AURORA         CLEAR     19  18  95 W8        30.27R WCI   9
HASTINGS       CLEAR     22  18  85 W7        30.27R WCI  13
HEBRON         CLEAR     23  22  97 W3        30.29S
HOLDREGE       CLOUDY    19  17  92 W6        30.27S WCI  11
KEARNEY *      CLEAR     19 -24  13 W6        30.27S WCI  11
YORK           CLEAR     19  19 100 W9        30.27R WCI   9
$$

NEZ011>018-030>034-042>045-061000-
NORTHEAST NEBRASKA

CITY           SKY/WX    TMP DP  RH WIND       PRES   REMARKS
NORFOLK        HAZE      17  12  80 NW3       30.24R VSB 1/2
ALBION         CLEAR     23  21  91 N6        30.25S WCI  16
BLAIR          CLOUDY    32  30  93 W5        30.24F WCI  27
COLUMBUS *       N/A     14   7  73 W3        30.26S VSB 3/4
FREMONT        PTCLDY    26  25  96 CALM      30.26F
TEKAMAH        CLOUDY    30  27  88 NW6       30.26S WCI  24
WAYNE          FOG       14  12  92 CALM      30.24S VSB 1/4
$$

NEZ050>053-065>068-078-088>093-061000-
SOUTHEAST NEBRASKA

CITY           SKY/WX    TMP DP  RH WIND       PRES   REMARKS
LINCOLN        CLEAR     31  28  89 CALM      30.29R
OMAHA EPPLEY   CLOUDY    31  29  92 NW3       30.27R
BEATRICE       CLOUDY    32  30  94 NW5       30.28R WCI  27
FALLS CITY     CLEAR     28  25  88 W5        30.27R WCI  23
NEBRASKA CITY  CLOUDY    32  32 100 CALM      30.26S
PLATTSMOUTH    CLOUDY    32  30  93 NW6       30.26R WCI  26
$$

NEZ044-045-051>053-067-061000-
OMAHA AREA

CITY           SKY/WX    TMP DP  RH WIND       PRES   REMARKS
OMAHA EPPLEY   CLOUDY    31  29  92 NW3       30.27R
BLAIR          CLOUDY    32  30  93 W5        30.24F WCI  27
FREMONT        PTCLDY    26  25  96 CALM      30.26F
MILLARD        CLOUDY    33  31  90 NW3       30.26S
OFFUTT AFB     CLOUDY    31  31  99 NW3       30.26R
PLATTSMOUTH    CLOUDY    32  30  93 NW6       30.26R WCI  26
WAHOO          FAIR      30  28  92 NW5       30.27S WCI  25
$$



USA.gov is the U.S. government's official web portal to all federal, state and local government web resources and services.